Location: Fort Wayne
(41.1310°N, 85.1290°W)
Time: 13:36:37
(UTC-04:00)

Helios 1B - Visible Passes

Search period start: 23 April 2018 00:00
Search period end: 03 May 2018 00:00
Orbit: 620 x 623 km, 98.2° (Epoch: 22 April)

Date Brightness Start Highest point End Pass type
(mag) Time Alt. Az. Time Alt. Az. Time Alt. Az.
23 Apr 6.9 02:44:10 20° N 02:44:10 20° N 02:45:34 10° N visible
24 Apr 6.9 03:02:05 19° NNW 03:02:05 19° NNW 03:03:24 10° NNW visible
25 Apr 7.3 01:42:49 14° NE 01:42:49 14° NE 01:43:55 10° NNE visible
25 Apr 6.9 03:20:01 17° NNW 03:20:01 17° NNW 03:21:06 10° NNW visible
26 Apr 7.1 02:00:45 18° NNE 02:00:45 18° NNE 02:02:22 10° NNE visible
26 Apr 7.0 03:37:57 14° NW 03:37:57 14° NW 03:38:38 10° NW visible
27 Apr 6.8 02:18:40 23° NNE 02:18:40 23° NNE 02:20:33 10° N visible
27 Apr 7.2 03:55:53 10° NW 03:55:53 10° NW 03:55:54 10° NW visible
28 Apr 6.6 02:36:36 26° N 02:36:36 26° N 02:38:34 10° N visible
29 Apr 6.5 02:54:32 26° NNW 02:54:32 26° NNW 02:56:27 10° NNW visible
30 Apr 7.3 01:35:16 13° NE 01:35:16 13° NE 01:36:34 10° NNE visible
30 Apr 6.5 03:12:28 23° NNW 03:12:28 23° NNW 03:14:13 10° NNW visible
01 May 7.0 01:53:12 18° NE 01:53:12 18° NE 01:55:11 10° NNE visible
01 May 6.7 03:30:24 19° NW 03:30:24 19° NW 03:31:49 10° NNW visible
02 May 6.7 02:11:08 24° NNE 02:11:08 24° NNE 02:13:27 10° N visible
02 May 6.9 03:48:20 14° NW 03:48:20 14° NW 03:49:12 10° NW visible
